GW6369 Weather Reports


time (UTC)temp
C
wind
direction
speed
KPH
gust
KPH
rain 1hr
cm
rain 24hr
cm
rain mn
cm
humidity
%
barometer
mb
20260504202619 15 53 11.3 17.7 0.00 0.00 0.00 69 1010.4
20260504202117 15 215 8.0 16.1 0.00 0.00 0.00 68 1010.4
20260504201613 15 197 9.7 14.5 0.00 0.00 0.00 68 1010.4
20260504201111 16 263 8.0 14.5 0.00 0.00 0.00 67 1010.4
20260504200608 15 72 1.6 3.2 0.00 0.00 0.00 69 1010.4
20260504200104 15 167 9.7 12.9 0.00 0.00 0.00 68 1010.4
20260504195600 16 196 4.8 9.7 0.00 0.00 0.00 66 1010.5
20260504195057 16 207 9.7 12.9 0.00 0.00 0.00 66 1010.7
20260504194554 16 193 6.4 11.3 0.00 0.00 0.00 68 1010.8
20260504194049 16 165 4.8 6.4 0.00 0.00 0.00 67 1010.9
20260504193546 16 49 6.4 12.9 0.00 0.00 0.00 66 1010.8
20260504193044 16 231 9.7 11.3 0.00 0.00 0.00 67 1010.6
20260504192543 16 207 9.7 14.5 0.00 0.00 0.00 65 1010.9
20260504192040 16 190 6.4 11.3 0.00 0.00 0.00 67 1010.9
20260504191538 16 133 12.9 17.7 0.00 0.00 0.00 66 1011.0
20260504191034 16 201 16.1 20.9 0.00 0.00 0.00 66 1011.1
20260504190531 16 232 4.8 6.4 0.00 0.00 0.00 66 1011.1
20260504190026 16 184 6.4 11.3 0.00 0.00 0.00 66 1011.2
20260504185524 16 199 12.9 20.9 0.00 0.00 0.00 64 1011.0
20260504185020 16 163 3.2 6.4 0.00 0.00 0.00 63 1011.1
20260504184515 17 198 8.0 11.3 0.00 0.00 0.00 62 1011.3
20260504184011 17 231 11.3 14.5 0.00 0.00 0.00 61 1011.5
20260504183509 17 198 8.0 11.3 0.00 0.00 0.00 62 1011.4
20260504183007 17 302 3.2 4.8 0.00 0.00 0.00 62 1011.3
20260504182503 16 154 9.7 14.5 0.00 0.00 0.00 63 1011.5
20260504182000 16 262 6.4 6.4 0.00 0.00 0.00 64 1011.4
20260504181457 16 208 14.5 24.1 0.00 0.00 0.00 62 1011.5
20260504180956 16 184 8.0 9.7 0.00 0.00 0.00 63 1011.5
20260504180455 16 200 8.0 16.1 0.00 0.00 0.00 63 1011.6
20260504175952 17 257 9.7 14.5 0.00 0.00 0.00 62 1011.6
20260504175449 17 274 9.7 11.3 0.00 0.00 0.00 61 1011.8
20260504174947 16 178 6.4 6.4 0.00 0.00 0.00 64 1011.7
20260504174444 16 264 8.0 11.3 0.00 0.00 0.00 62 1011.7
20260504173942 16 93 4.8 6.4 0.00 0.00 0.00 63 1011.8
20260504173437 16 229 9.7 14.5 0.00 0.00 0.00 62 1011.7
20260504172935 17 196 4.8 6.4 0.00 0.00 0.00 63 1011.6
20260504172431 17 192 4.8 6.4 0.00 0.00 0.00 65 1012.0
20260504171928 16 274 6.4 9.7 0.00 0.00 0.00 64 1012.0
20260504171425 16 230 8.0 11.3 0.00 0.00 0.00 64 1012.0
20260504170922 16 306 3.2 4.8 0.00 0.00 0.00 65 1011.9
20260504170418 16 147 8.0 11.3 0.00 0.00 0.00 64 1012.2
20260504160337 16 60 4.8 6.4 0.00 0.00 0.00 63 1012.8
20260504150802 16 226 4.8 6.4 0.00 0.00 0.00 57 1013.4
20260504150258 16 209 4.8 6.4 0.00 0.00 0.00 56 1013.6
20260504141228 15 223 4.8 6.4 0.00 0.00 0.00 58 1013.6
20260504140725 15 307 9.7 14.5 0.00 0.00 0.00 55 1013.6
20260504140220 16 251 11.3 14.5 0.00 0.00 0.00 51 1013.5
20260504130649 13 258 3.2 3.2 0.00 0.00 0.00 59 1013.8
20260504130145 13 194 3.2 4.8 0.00 0.00 0.00 59 1014.0
20260504120110 12 225 8.0 9.7 0.00 0.00 0.00 62 1014.2
20260504110537 11 176 3.2 4.8 0.00 0.00 0.00 63 1014.2
20260504100459 9 173 0.0 0.0 0.00 0.00 0.00 69 1013.9
20260504081857 10 241 4.8 6.4 0.00 0.00 0.00 57 1013.3
20260504081354 10 283 6.4 6.4 0.00 0.00 0.00 58 1013.3
20260504080850 10 256 1.6 1.6 0.00 0.00 0.00 60 1013.2
20260504080347 10 256 1.6 1.6 0.00 0.00 0.00 60 1013.2
20260504070315 11 280 6.4 6.4 0.00 0.00 0.00 55 1012.8
20260504060235 11 208 6.4 12.9 0.00 0.00 0.00 54 1012.8
20260504050703 10 259 4.8 4.8 0.00 0.00 0.00 64 1012.5
20260504050200 10 198 1.6 1.6 0.00 0.00 0.00 63 1012.5
20260504045658 10 207 1.6 3.2 0.00 0.00 0.00 63 1012.7
20260504045157 10 237 3.2 4.8 0.00 0.00 0.00 64 1012.5
20260504044655 10 236 3.2 4.8 0.00 0.00 0.00 64 1012.5
20260504044152 10 240 3.2 3.2 0.00 0.00 0.00 63 1012.5
20260504043649 10 200 1.6 1.6 0.00 0.00 0.00 61 1012.2
20260504043146 11 255 3.2 3.2 0.00 0.00 0.00 59 1012.5
20260504042644 11 253 3.2 4.8 0.00 0.00 0.00 58 1012.5
20260504042140 11 268 3.2 6.4 0.00 0.00 0.00 59 1012.3
20260504041636 11 107 3.2 3.2 0.00 0.00 0.00 60 1012.3
20260504041132 11 219 4.8 4.8 0.00 0.00 0.00 60 1012.2
20260504040630 11 227 3.2 3.2 0.00 0.00 0.00 59 1012.2
20260504040126 11 214 1.6 1.6 0.00 0.00 0.00 58 1012.2
20260504035623 11 206 1.6 1.6 0.00 0.00 0.00 58 1012.2
20260504035120 11 232 3.2 4.8 0.00 0.00 0.00 60 1012.3
20260504034618 11 192 1.6 1.6 0.00 0.00 0.00 61 1012.2
20260504034114 11 241 3.2 4.8 0.00 0.00 0.00 62 1012.2
20260504033612 11 213 3.2 3.2 0.00 0.00 0.00 62 1012.2
20260504033109 11 258 3.2 3.2 0.00 0.00 0.00 61 1012.1
20260504032606 11 211 1.6 1.6 0.00 0.00 0.00 57 1012.1
20260504032103 11 192 0.0 1.6 0.00 0.00 0.00 55 1012.1
20260504031600 11 198 0.0 1.6 0.00 0.00 0.00 54 1012.3
20260504031056 11 167 0.0 1.6 0.00 0.00 0.00 53 1012.1
20260504030553 11 211 3.2 3.2 0.00 0.00 0.00 53 1012.3
20260504030049 11 207 1.6 3.2 0.00 0.00 0.00 56 1012.2
20260504025547 11 195 1.6 1.6 0.00 0.00 0.00 57 1012.2
20260504025043 11 206 3.2 3.2 0.00 0.00 0.00 58 1012.1
20260504024541 11 231 1.6 1.6 0.00 0.00 0.00 60 1012.1
20260504024037 11 254 1.6 1.6 0.00 0.00 0.00 60 1012.1
20260504023534 11 172 0.0 1.6 0.00 0.00 0.00 57 1012.2
20260504023030 11 214 1.6 3.2 0.00 0.00 0.00 54 1012.1
20260504022526 11 190 0.0 1.6 0.00 0.00 0.00 54 1012.2
20260504022023 11 252 4.8 4.8 0.00 0.00 0.00 55 1012.2
20260504021520 11 259 3.2 9.7 0.00 0.00 0.00 56 1012.0
20260504021017 11 194 1.6 1.6 0.00 0.00 0.00 57 1012.1
20260504020514 11 224 1.6 1.6 0.00 0.00 0.00 56 1012.2
20260504020010 11 191 0.0 0.0 0.00 0.00 0.00 54 1012.1
20260504015507 11 186 0.0 0.0 0.00 0.00 0.00 54 1012.0
20260504015003 11 190 1.6 1.6 0.00 0.00 0.00 53 1012.1
20260504014459 10 171 0.0 0.0 0.00 0.00 0.00 52 1012.0
20260504013956 10 174 0.0 0.0 0.00 0.00 0.00 51 1011.9
20260504013454 10 176 0.0 0.0 0.00 0.00 0.00 50 1011.8
20260504012950 10 191 0.0 0.0 0.00 0.00 0.00 50 1011.7
20260504012448 10 174 0.0 0.0 0.00 0.00 0.00 48 1011.8
20260504011946 10 171 0.0 0.0 0.00 0.00 0.00 47 1011.8
20260504011442 10 164 0.0 0.0 0.00 0.00 0.00 44 1011.7
20260504010938 10 169 0.0 0.0 0.00 0.00 0.00 43 1011.5
20260504010434 11 169 0.0 0.0 0.00 0.00 0.00 42 1011.5
20260504005930 11 169 0.0 0.0 0.00 0.00 0.00 42 1011.4
20260504005427 11 176 0.0 0.0 0.00 0.00 0.00 39 1011.5
20260504004925 12 177 0.0 0.0 0.00 0.00 0.00 37 1011.4
20260504004422 12 177 0.0 0.0 0.00 0.00 0.00 36 1011.3
20260504003919 12 180 0.0 0.0 0.00 0.00 0.00 34 1011.1
20260504003415 12 182 0.0 0.0 0.00 0.00 0.00 34 1011.3
20260504002912 13 172 0.0 0.0 0.00 0.00 0.00 33 1011.0
20260504002409 13 221 0.0 0.0 0.00 0.00 0.00 32 1010.9
20260504001907 13 179 0.0 1.6 0.00 0.00 0.00 31 1010.7
20260504001404 13 188 1.6 1.6 0.00 0.00 0.00 30 1010.8
20260504000900 13 229 1.6 1.6 0.00 0.00 0.00 30 1010.7
20260504000358 13 271 1.6 3.2 0.00 0.00 0.00 30 1010.7
20260503235855 13 310 3.2 4.8 0.00 0.00 0.00 30 1010.7
20260503235353 14 339 1.6 1.6 0.00 0.00 0.00 29 1010.5
20260503234850 14 240 3.2 3.2 0.00 0.00 0.00 29 1010.5
20260503234348 14 313 3.2 4.8 0.00 0.00 0.00 28 1010.6
20260503233845 14 305 1.6 3.2 0.00 0.00 0.00 28 1010.4
20260503233341 14 343 6.4 9.7 0.00 0.00 0.00 28 1010.4
20260503232837 14 10 1.6 3.2 0.00 0.00 0.00 28 1010.4
20260503232335 15 228 3.2 3.2 0.00 0.00 0.00 28 1010.2
20260503231833 15 280 3.2 4.8 0.00 0.00 0.00 27 1010.3
20260503231330 15 341 3.2 6.4 0.00 0.00 0.00 27 1010.1
20260503230825 15 5 6.4 6.4 0.00 0.00 0.00 27 1010.2
20260503230323 15 216 8.0 12.9 0.00 0.00 0.00 27 1010.2
20260503225820 15 271 8.0 11.3 0.00 0.00 0.00 26 1010.1
20260503225316 15 327 6.4 6.4 0.00 0.00 0.00 26 1010.2
20260503224812 15 251 11.3 14.5 0.00 0.00 0.00 26 1010.2
20260503224310 15 231 9.7 24.1 0.00 0.00 0.00 26 1010.0
20260503223808 15 229 11.3 14.5 0.00 0.00 0.00 25 1010.0
20260503223305 15 244 4.8 6.4 0.00 0.00 0.00 26 1010.0
20260503222800 15 277 9.7 12.9 0.00 0.00 0.00 26 1010.0
20260503222259 15 322 8.0 11.3 0.00 0.00 0.00 26 1010.0
20260503221757 15 29 4.8 6.4 0.00 0.00 0.00 26 1010.1
20260503221255 15 264 8.0 11.3 0.00 0.00 0.00 26 1010.0
20260503220751 15 197 6.4 12.9 0.00 0.00 0.00 26 1009.9
20260503220248 15 34 6.4 9.7 0.00 0.00 0.00 27 1009.9
20260503215745 15 324 11.3 14.5 0.00 0.00 0.00 26 1010.0
20260503215242 15 244 12.9 16.1 0.00 0.00 0.00 26 1010.1
20260503214740 15 304 12.9 16.1 0.00 0.00 0.00 27 1010.0
20260503214236 15 175 14.5 22.5 0.00 0.00 0.00 26 1009.9
20260503213735 15 233 6.4 16.1 0.00 0.00 0.00 27 1009.8
20260503213232 15 265 6.4 11.3 0.00 0.00 0.00 27 1009.8
20260503212728 15 317 11.3 17.7 0.00 0.00 0.00 27 1009.9
20260503212226 15 275 14.5 22.5 0.00 0.00 0.00 26 1010.0
20260503211723 16 306 12.9 16.1 0.00 0.00 0.00 27 1009.8
20260503211219 15 333 4.8 9.7 0.00 0.00 0.00 28 1009.7
20260503210715 15 53 9.7 14.5 0.00 0.00 0.00 27 1009.6
20260503210212 15 318 14.5 27.4 0.00 0.00 0.00 28 1009.7
20260503205707 15 280 9.7 20.9 0.00 0.00 0.00 28 1009.6
20260503205204 15 300 12.9 17.7 0.00 0.00 0.00 28 1009.7
20260503204700 15 316 8.0 16.1 0.00 0.00 0.00 29 1009.7
20260503204158 15 320 9.7 16.1 0.00 0.00 0.00 29 1009.6
20260503203655 15 19 11.3 16.1 0.00 0.00 0.00 28 1009.8
20260503203153 15 308 12.9 22.5 0.00 0.00 0.00 28 1009.7